Tracking 30746 objects as of 20-Jun-2025
HD Live streaming from Space Station
objects crossing your sky now

STARLINK-31216

Track STARLINK-31216 now!
10-day predictions
STARLINK-31216 is classified as:


NORAD ID: 58857
Int'l Code: 2024-019E
Perigee: 489.1 km
Apogee: 491.3 km
Inclination: 43.0 °
Period: 94.3 minutes
Semi major axis: 6861 km
RCS: Unknown
Launch date: January 29, 2024
Source: United States (US)
Launch site: AIR FORCE EASTERN TEST RANGE (AFETR)
Your satellite tracking list
Your tracking list is empty




NASA's NSSDC Master Catalog

Two Line Element Set (TLE):
1 58857U 24019E   25170.55470043  .00000245  00000-0  18425-4 0  9997
2 58857  43.0047 273.0190 0001628 277.8659  82.2008 15.27574724 78937
Source of the keplerian elements: AFSPC